Date String (YYYY-MM-DD hh:mm:ss) UTC,Instrument flags,absolute air pressure of the measurement (hPa),sample flow rate (lpm),inlet stack bypass flow (lpm),air temperature of the measurement (°C),ambient temperature measured by the external sensor (°C),aerosol sample conditioner tube jacket temperature (°C),OPC LED temperature (°C),internal box temperature (°C),relative humidity of the measurement (%),span deviation,mass concentration of particles derived from Lorenz-Mie calculation of OPC scattering (μg/m³),mass concentration of particles derived from Lorenz-Mie calculation of OPC scattering (μg/m³),mass concentration of particles derived from Lorenz-Mie calculation of OPC scattering (μg/m³)
DateTimeUTC,F1_M11,P_M11,Q1_M11,Q2_M11,T1_M11,T2_M11,T3_M11,T4_M11,T5_M11,U1_M11,ZSPAN_M11,X2_M11,X0_M11,X1_M11
2023-10-06 05:00:00,SystemResetWarning,0838.0,5.01,000.00,029.1,027.7,000.0,037.6,030.7,16.9,0000.0,0004.19,0019.03,0002.88
2023-10-06 05:01:00,SystemResetWarning,0838.0,5.01,000.00,029.1,027.7,000.0,037.6,030.7,16.9,0000.0,0004.16,0019.28,0002.84
2023-10-06 05:02:00,SystemResetWarning,0838.0,5.01,000.00,029.1,027.7,000.0,037.6,030.7,16.9,0000.0,0004.17,0019.87,0002.83
2023-10-06 05:03:00,SystemResetWarning,0837.9,4.99,000.00,029.1,027.7,000.0,037.6,030.7,16.9,0000.0,0004.16,0020.35,0002.83
2023-10-06 05:04:00,SystemResetWarning,0837.9,5.00,000.00,029.1,027.7,000.0,037.6,030.7,16.9,0000.0,0004.13,0019.75,0002.82
2023-10-06 05:05:00,SystemResetWarning,0838.0,5.00,000.00,029.1,027.7,000.0,037.6,030.8,16.8,0000.0,0004.17,0018.24,0002.83
2023-10-06 05:06:00,SystemResetWarning,0838.0,4.99,000.00,029.1,027.7,000.0,037.6,030.7,16.8,0000.0,0004.18,0018.65,0002.84
2023-10-06 05:07:00,SystemResetWarning,0838.0,5.01,000.00,029.1,027.7,000.0,037.6,030.7,16.8,0000.0,0004.19,0018.71,0002.85
2023-10-06 05:08:00,SystemResetWarning,0838.0,5.01,000.00,029.1,027.7,000.0,037.6,030.7,16.7,0000.0,0004.21,0018.55,0002.86
2023-10-06 05:09:00,SystemResetWarning,0838.0,5.00,000.00,029.1,027.7,000.0,037.6,030.8,16.7,0000.0,0004.24,0018.63,0002.84
2023-10-06 05:10:00,SystemResetWarning,0838.0,5.00,000.00,029.2,027.7,000.0,037.6,030.8,16.7,0000.0,0004.29,0018.60,0002.84
2023-10-06 05:11:00,SystemResetWarning,0838.0,5.00,000.00,029.2,027.7,000.0,037.6,030.8,16.7,0000.0,0004.26,0018.75,0002.84
2023-10-06 05:12:00,SystemResetWarning,0837.9,5.01,000.00,029.2,027.7,000.0,037.6,030.8,16.6,0000.0,0004.22,0017.82,0002.84
2023-10-06 05:13:00,SystemResetWarning,0837.9,5.00,000.00,029.2,027.7,000.0,037.6,030.8,16.6,0000.0,0004.17,0016.79,0002.82
2023-10-06 05:14:00,SystemResetWarning,0837.9,5.00,000.00,029.2,027.7,000.0,037.6,030.8,16.5,0000.0,0004.17,0015.61,0002.81
2023-10-06 05:15:00,SystemResetWarning,0837.8,5.00,000.00,029.2,027.8,000.0,037.6,030.8,16.6,0000.0,0004.16,0015.49,0002.81
2023-10-06 05:16:00,SystemResetWarning,0837.8,5.00,000.00,029.2,027.8,000.0,037.6,030.8,16.6,0000.0,0004.11,0015.48,0002.80
2023-10-06 05:17:00,SystemResetWarning,0837.8,5.00,000.00,029.2,027.8,000.0,037.6,030.8,16.6,0000.0,0004.09,0014.33,0002.80
2023-10-06 05:18:00,SystemResetWarning,0837.8,5.00,000.00,029.2,027.8,000.0,037.6,030.8,16.6,0000.0,0004.06,0013.72,0002.79
2023-10-06 05:19:00,SystemResetWarning,0837.9,5.00,000.00,029.2,027.8,000.0,037.6,030.8,16.5,0000.0,0004.05,0013.72,0002.76
2023-10-06 05:20:00,SystemResetWarning,0837.8,4.99,000.00,029.2,027.8,000.0,037.6,030.8,16.4,0000.0,0004.03,0013.34,0002.78
2023-10-06 05:21:00,SystemResetWarning,0837.9,4.99,000.00,029.2,027.8,000.0,037.6,030.8,16.3,0000.0,0004.01,0013.36,0002.78
2023-10-06 05:22:00,SystemResetWarning,0837.9,5.00,000.00,029.2,027.8,000.0,037.6,030.8,16.3,0000.0,0004.02,0013.64,0002.77
2023-10-06 05:23:00,SystemResetWarning,0837.9,5.01,000.00,029.2,027.8,000.0,037.6,030.8,16.3,0000.0,0004.05,0013.82,0002.77
2023-10-06 05:24:00,SystemResetWarning,0837.8,5.01,000.00,029.2,027.8,000.0,037.6,030.8,16.3,0000.0,0004.07,0013.03,0002.77
2023-10-06 05:25:00,SystemResetWarning,0837.8,5.00,000.00,029.2,027.8,000.0,037.6,030.8,16.3,0000.0,0004.09,0012.86,0002.76
2023-10-06 05:26:00,SystemResetWarning,0837.8,5.00,000.00,029.2,027.8,000.0,037.7,030.8,16.4,0000.0,0004.06,0012.86,0002.74
2023-10-06 05:27:00,SystemResetWarning,0837.8,5.00,000.00,029.2,027.8,000.0,037.6,030.8,16.4,0000.0,0004.07,0013.44,0002.72
2023-10-06 05:28:00,SystemResetWarning,0837.8,5.00,000.00,029.2,027.8,000.0,037.6,030.8,16.4,0000.0,0004.09,0015.00,0002.71
2023-10-06 05:29:00,SystemResetWarning,0837.8,4.99,000.00,029.2,027.8,000.0,037.6,030.8,16.3,0000.0,0004.13,0015.80,0002.72
2023-10-06 05:30:00,SystemResetWarning,0837.8,4.99,000.00,029.2,027.8,000.0,037.7,030.8,16.3,0000.0,0004.14,0015.93,0002.71
2023-10-06 05:31:00,SystemResetWarning,0837.8,5.00,000.00,029.2,027.7,000.0,037.6,030.8,16.2,0000.0,0004.17,0016.84,0002.71
2023-10-06 05:32:00,SystemResetWarning,0837.8,5.00,000.00,029.2,027.7,000.0,037.6,030.8,16.2,0000.0,0004.15,0017.06,0002.72
2023-10-06 05:33:00,SystemResetWarning,0837.8,5.00,000.00,029.2,027.7,000.0,037.7,030.8,16.1,0000.0,0004.16,0016.75,0002.73
2023-10-06 05:34:00,SystemResetWarning,0837.8,5.01,000.00,029.2,027.7,000.0,037.7,030.8,16.1,0000.0,0004.17,0016.64,0002.74
2023-10-06 05:35:00,SystemResetWarning,0837.8,5.00,000.00,029.2,027.7,000.0,037.7,030.8,16.1,0000.0,0004.14,0016.99,0002.76
2023-10-06 05:36:00,SystemResetWarning,0837.7,5.01,000.00,029.2,027.7,000.0,037.7,030.8,16.1,0000.0,0004.11,0018.36,0002.77
2023-10-06 05:37:00,SystemResetWarning,0837.8,5.01,000.00,029.2,027.7,000.0,037.7,030.8,16.1,0000.0,0004.16,0018.39,0002.79
2023-10-06 05:38:00,SystemResetWarning,0837.8,4.99,000.00,029.2,027.7,000.0,037.7,030.8,16.1,0000.0,0004.19,0018.68,0002.81
2023-10-06 05:39:00,SystemResetWarning,0837.9,5.00,000.00,029.2,027.7,000.0,037.7,030.8,16.1,0000.0,0004.19,0017.42,0002.83
2023-10-06 05:40:00,SystemResetWarning,0837.8,4.99,000.00,029.2,027.7,000.0,037.7,030.8,16.1,0000.0,0004.21,0016.90,0002.86
2023-10-06 05:41:00,SystemResetWarning,0837.9,5.00,000.00,029.2,027.7,000.0,037.7,030.8,16.1,0000.0,0004.19,0017.22,0002.88
2023-10-06 05:42:00,SystemResetWarning,0837.9,5.00,000.00,029.2,027.7,000.0,037.7,030.8,16.0,0000.0,0004.17,0016.40,0002.89
2023-10-06 05:43:00,SystemResetWarning,0837.9,5.01,000.00,029.2,027.8,000.0,037.7,030.8,16.0,0000.0,0004.16,0016.59,0002.89
2023-10-06 05:44:00,SystemResetWarning,0837.9,5.01,000.00,029.2,027.8,000.0,037.7,030.8,16.0,0000.0,0004.13,0015.94,0002.90
2023-10-06 05:45:00,SystemResetWarning,0837.9,5.00,000.00,029.2,027.8,000.0,037.7,030.8,16.0,0000.0,0004.09,0015.69,0002.90
2023-10-06 05:46:00,SystemResetWarning,0837.9,5.00,000.00,029.2,027.8,000.0,037.7,030.8,16.0,0000.0,0004.13,0015.93,0002.91
2023-10-06 05:47:00,SystemResetWarning,0837.9,5.00,000.00,029.2,027.8,000.0,037.7,030.8,16.0,0000.0,0004.09,0014.60,0002.91
2023-10-06 05:48:00,SystemResetWarning,0837.8,5.00,000.00,029.2,027.8,000.0,037.7,030.8,16.0,0000.0,0004.06,0014.85,0002.91
2023-10-06 05:49:00,SystemResetWarning,0837.8,5.00,000.00,029.2,027.8,000.0,037.7,030.8,16.0,0000.0,0004.05,0014.39,0002.91
2023-10-06 05:50:00,SystemResetWarning,0837.8,5.00,000.00,029.2,027.8,000.0,037.7,030.8,16.0,0000.0,0004.08,0014.55,0002.93
2023-10-06 05:51:00,SystemResetWarning,0837.8,5.00,000.00,029.2,027.7,000.0,037.7,030.8,16.0,0000.0,0004.03,0014.69,0002.91
2023-10-06 05:52:00,SystemResetWarning,0837.8,5.00,000.00,029.2,027.7,000.0,037.7,030.8,16.0,0000.0,0004.02,0013.82,0002.92
2023-10-06 05:53:00,SystemResetWarning,0837.8,5.00,000.00,029.2,027.7,000.0,037.7,030.8,16.0,0000.0,0004.03,0013.91,0002.92
2023-10-06 05:54:00,SystemResetWarning,0837.8,5.00,000.00,029.2,027.7,000.0,037.7,030.8,16.0,0000.0,0004.06,0013.47,0002.94
2023-10-06 05:55:00,SystemResetWarning,0837.8,5.00,000.00,029.2,027.7,000.0,037.7,030.8,16.0,0000.0,0004.08,0013.61,0002.95
2023-10-06 05:56:00,SystemResetWarning,0837.8,4.99,000.00,029.2,027.7,000.0,037.7,030.8,16.0,0000.0,0004.12,0013.82,0002.98
2023-10-06 05:57:00,SystemResetWarning,0837.8,5.00,000.00,029.2,027.7,000.0,037.7,030.8,16.0,0000.0,0004.12,0013.51,0003.00
2023-10-06 05:58:00,SystemResetWarning,0837.8,5.00,000.00,029.2,027.7,000.0,037.7,030.8,16.0,0000.0,0004.15,0013.62,0003.01
2023-10-06 05:59:00,SystemResetWarning,0837.8,5.01,000.00,029.2,027.7,000.0,037.7,030.8,16.0,0000.0,0004.17,0013.04,0003.04
